TimeCST,TemperatureF,Dew PointF,Humidity,Sea Level PressureIn,VisibilityMPH,Wind Direction,Wind SpeedMPH,Gust SpeedMPH,PrecipitationIn,Events,Conditions,WindDirDegrees,DateUTC
12:53 AM,70.0,68.0,93,30.09,10.0,ESE,6.9,-,N/A,,Clear,120,2012-12-02 06:53:00
1:53 AM,70.0,68.0,93,30.08,10.0,SE,9.2,-,N/A,,Clear,130,2012-12-02 07:53:00
2:53 AM,70.0,68.0,93,30.06,10.0,SE,9.2,-,N/A,,Clear,130,2012-12-02 08:53:00
3:53 AM,70.0,66.9,90,30.07,10.0,SE,8.1,-,N/A,,Clear,130,2012-12-02 09:53:00
4:53 AM,68.0,66.0,93,30.06,10.0,SE,5.8,-,N/A,,Clear,130,2012-12-02 10:53:00
5:53 AM,66.9,64.9,93,30.08,10.0,SE,5.8,-,N/A,,Clear,130,2012-12-02 11:53:00
6:53 AM,64.9,64.0,97,30.10,10.0,SE,3.5,-,N/A,,Clear,140,2012-12-02 12:53:00
7:53 AM,69.1,66.9,93,30.11,10.0,SE,5.8,-,N/A,,Clear,140,2012-12-02 13:53:00
8:53 AM,75.0,69.1,82,30.12,10.0,SE,10.4,-,N/A,,Clear,140,2012-12-02 14:53:00
9:53 AM,79.0,66.0,64,30.13,10.0,SSE,16.1,23.0,N/A,,Partly Cloudy,160,2012-12-02 15:53:00
10:53 AM,82.9,64.9,54,30.13,10.0,SE,16.1,-,N/A,,Partly Cloudy,140,2012-12-02 16:53:00
11:53 AM,84.0,64.0,51,30.12,10.0,SE,13.8,-,N/A,,Scattered Clouds,140,2012-12-02 17:53:00
12:53 PM,82.9,64.0,53,30.08,10.0,SE,12.7,19.6,N/A,,Partly Cloudy,140,2012-12-02 18:53:00
1:53 PM,84.0,63.0,49,30.06,10.0,SSE,11.5,20.7,N/A,,Partly Cloudy,150,2012-12-02 19:53:00
2:53 PM,82.0,64.0,54,30.04,10.0,SE,11.5,-,N/A,,Partly Cloudy,140,2012-12-02 20:53:00
3:53 PM,81.0,64.0,56,30.05,10.0,SE,15.0,21.9,N/A,,Partly Cloudy,130,2012-12-02 21:53:00
4:53 PM,78.1,66.0,66,30.05,10.0,SE,12.7,-,N/A,,Scattered Clouds,140,2012-12-02 22:53:00
5:10 PM,77.0,66.2,69,30.06,10.0,ESE,12.7,-,N/A,,Mostly Cloudy,120,2012-12-02 23:10:00
5:18 PM,77.0,66.2,69,30.06,10.0,SE,12.7,-,N/A,,Scattered Clouds,130,2012-12-02 23:18:00
5:53 PM,77.0,66.0,69,30.06,10.0,SE,10.4,-,N/A,,Clear,130,2012-12-02 23:53:00
6:53 PM,72.0,66.0,81,30.06,10.0,ESE,5.8,-,N/A,,Clear,120,2012-12-03 00:53:00
7:53 PM,71.1,66.0,84,30.08,10.0,ESE,4.6,-,N/A,,Clear,120,2012-12-03 01:53:00
8:53 PM,70.0,66.0,87,30.08,10.0,ESE,5.8,-,N/A,,Clear,120,2012-12-03 02:53:00
9:53 PM,69.1,66.0,90,30.08,10.0,ESE,6.9,-,N/A,,Clear,120,2012-12-03 03:53:00
10:53 PM,69.1,66.0,90,30.07,10.0,ESE,6.9,-,N/A,,Clear,120,2012-12-03 04:53:00
11:53 PM,66.9,66.0,97,30.06,10.0,SE,6.9,-,N/A,,Clear,140,2012-12-03 05:53:00